Regional Weather Roundup
Issued by NWS Charleston, SC

Current Version | Previous Version | Graphics & Text | Print | Product List | Glossary On
Versions: 1 2 3 4 5 6 7 8 9 10 11 12 13 14 15 16 17 18 19 20 21 22 23 24 25 26 27 28 29 30 31 32 33 34 35 36 37 38 39 40 41 42 43 44 45 46 47 48 49 50
970 ASUS42 KCHS 261928 RWRCHS REGIONAL WEATHER ROUNDUP NATIONAL WEATHER SERVICE CHARLESTON SC 300 PM EDT FRI AUG 26 2016 NOTE: "FAIR" INDICATES FEW OR NO CLOUDS BELOW 12,000 FEET WITH NO SIGNIFICANT WEATHER AND/OR OBSTRUCTIONS TO VISIBILITY. NOT ALL STATIONS ARE QUALITY CONTROLLED. USE DATA WITH CAUTION... ESPECIALLY DEWPOINT OBSERVATIONS. SCZ027-030-031-034>040-042>050-262000- ...SOUTHEAST SOUTH CAROLINA... CITY SKY/WX TMP DP RH WIND PRES REMARKS N CHARLESTON MOSUNNY 90 71 53 CALM 30.06F HX 96 WATERFRONT PRK N/A 85 76 74 SE10 30.06F HX 95 MOUNT PLEASANT FAIR 88 75 66 CALM 30.06F HX 97 JOHNS ISLAND FAIR 88 73 62 E9 30.06F HX 96 PINOPOLIS N/A 84 73 70 VRB2 30.01F HX 91 MONCKS CORNER FAIR 90 70 51 E3 30.05F HX 95 SUMMERVILLE FAIR 91 72 52 N3 30.06F HX 98 BEAUFORT MCAS MOSUNNY 90 74 59 SE3 30.06F HX 99 BEAUFORT ARPT FAIR 88 72 58 E12 30.06S HX 94 HILTON HEAD IS MOSUNNY 93 75 55 NE7 30.08F HX 104 WALTERBORO PTCLDY 91 70 49 E8 30.06F HX 97 ALLENDALE FAIR 93 70 46 VRB7G13 30.04F HX 99 ...SOUTHERN MIDLANDS AND PEE DEE... CITY SKY/WX TMP DP RH WIND PRES REMARKS GEORGETOWN FAIR 86 72 62 E10 30.08F HX 92 KINGSTREE FAIR 93 68 43 NE5 30.06F HX 97 ORANGEBURG MOSUNNY 93 69 45 SE7 30.06F HX 98 BARNWELL NOT AVBL AIKEN FAIR 93 68 43 SE10 30.10F HX 97 MANNING MOCLDY 90 72 55 S5 30.06F HX 96 COLUMBIA MOSUNNY 95 70 44 VRB5 30.05F HX 101 SUMTER SUNNY 95 71 45 E13 30.04F HX 101 FLORENCE MOSUNNY 94 71 47 VRB5 30.06F HX 101 MYRTLE BEACH MOSUNNY 88 68 51 S12 30.10F HX 91 N MYRTLE BEACH SUNNY 85 72 65 SE9 30.08F HX 91 $$ GAZ063-065-086>088-099>101-113>116-118-119-134>141-150-262000- ...SOUTHEAST GEORGIA... CITY SKY/WX TMP DP RH WIND PRES REMARKS SAVANNAH ARPT MOSUNNY 91 70 49 SE17G25 30.05F HX 96 HUNTER AAF MOSUNNY 89 77 67 E14 30.04F HX 102 FORT STEWART MOSUNNY 91 69 48 E12G17 30.02F HX 96 STATESBORO PTSUNNY 92 72 52 E6 30.05F HX 99 SYLVANIA NOT AVBL CLAXTON FAIR 91 70 50 E6G17 30.04F HX 96 ...CSRA...CENTRAL AND FAR SOUTHEAST GEORGIA... CITY SKY/WX TMP DP RH WIND PRES REMARKS THOMSON MOSUNNY 96 72 45 MISG 30.10F HX 105 AUGUSTA-BUSH MOSUNNY 95 69 42 NE5 30.04F HX 100 AUGUSTA-DANIEL SUNNY 95 69 42 SE12 30.07F HX 100 SWAINSBORO FAIR 95 66 38 SE15 30.06F HX 98 VIDALIA PTSUNNY 91 72 52 E14 30.05F HX 98 EASTMAN MOCLDY 95 46 18 E10G20 30.06F HX 91 HAZLEHURST FAIR 94 67 41 E9G17 30.04F HX 97 ALMA MOSUNNY 91 68 46 E8 30.04F HX 95 WAYCROSS N/A 92 75 57 SE14 30.04F HX 103 JESUP FAIR 91 72 52 E12G24 30.04F HX 98 BAXLEY FAIR 93 70 46 E6 30.04F HX 99 BRUNSWICK MOSUNNY 88 73 62 E14G20 30.05F HX 96 SAINT SIMONS MOSUNNY 89 71 55 E15 30.05F HX 95 $$ SCZ027-028-034-036>038-045-046-048>050-GAZ119-141-262000- ...LAKE AND SUPPLEMENTAL COASTAL OBSERVATIONS... STATION/POSITION TIME TEMP WIND PRES WAVE SWELL AIR SEA DIR/SP/G HT/PER HT/PER/DIR (UTC) (F) (DEG/KT/KT) (MB) (FT/S) (FT/S/D) WINYAH BAY 1845 83 100/ 7 1018.0F LAKE MURRAY 1800 90 210/ 3/ 5 1017.3F ACE BASIN NERRS 1800 90 120/ 3 1019.0S FORT PULASKI 1900 83 86 70/ 12/ 14 1018.5F SAPELO ISLAND 1900 88 60/ 12 1018.0S $$ ANZ835-935-AMZ111-154-330-350-352-354-370-450-454-472-262000- ...C-MAN AND BUOY OBSERVATIONS... STATION/POSITION TIME TEMP WIND PRES WAVE SWELL AIR SEA DIR/SP/G HT/PER HT/PER/DIR (UTC) (F) (DEG/KT/KT) (MB) (FT/S) (FT/S/D) BUOY 41004 1850 82 84 50/ 12/ 16 1017.4F 2/ 6 2/110/ 9 BUOY 41008 1850 83 85 70/ 16/ 19 1017.1F 4/ 8 2/120/ 8 FOLLY BEACH CMAN 1900 84 80/ 8/ 10 1018.6F CAPERS NEARSHORE 1908 82 85 80/ 10/ 14 1017.9F FRIPP NEARSHORE 1908 83 86 80/ 10/ 14 1017.3F STATION/POSITION TIME TEMP WIND PRES WAVE SWELL AIR SEA DIR/SP/G HT/PER HT/PER/DIR (UTC) (F) (DEG/KT/KT) (MB) (FT/S) (FT/S/D) 5E ST. MARYS GA 1901 85 N/A 4/ 8 FRYING PAN BUOY 1900 82 85 40/ 10/ 12 1018.3F BUOY 41025 1850 84 87 CALM / 2 1018.8F 2/ 7 2/ 80/ 7 CAPE LOOKOUT NC 1900 83 160/ 6/ 7 1018.5F BUOY 41002 1850 82 84 60/ 19/ 23 1016.1F 7/ 6 2/110/10 BUOY 41010 NOT AVBL ST AUGUSTINE FL 1900 83 84 60/ 14/ 16 1017.7F $$

USA.gov is the U.S. government's official web portal to all federal, state and local government web resources and services.